Weather History for KNZY - October, 2013

Change the Weather History Date:

Saturday, October 5, 2013

  Actual Average Record
Temperature  
Mean Temperature 76 °F -  
Max Temperature 91 °F 70 °F 91 °F (2013)
Min Temperature 62 °F 60 °F 46 °F (1998)
Cooling Degree Days 11    
Growing Degree Days 26 (Base 50)    
Moisture  
Dew Point 41 °F    
Average Humidity 38    
Maximum Humidity 78    
Minimum Humidity 8    
Precipitation  
Precipitation 0.00 in - - ()
Sea Level Pressure  
Sea Level Pressure 30.03 in    
Wind  
Wind Speed 5 mph (NNW)    
Max Wind Speed 14 mph    
Max Gust Speed -    
Visibility 10 miles    
Events      
Averages and records for this station are not official NWS values.
T = Trace of Precipitation, MM = Missing Value Source: NWS Daily Summary

Daily Weather History Graph

Daily Weather History Graph

Search for Another Location

Airport or City:

Trip Planner

Search our weather history database for the weather conditions in past years. The results will help you decide how hot, cold, wet, or windy it might be!

Date:

Astronomy

Oct. 05, 2013 Rise Set
Actual Time 6:45 AM PDT 6:27 PM PDT
Civil Twilight 6:21 AM PDT 6:52 PM PDT
Nautical Twilight 5:52 AM PDT 7:20 PM PDT
Astronomical Twilight 5:24 AM PDT 7:49 PM PDT
Moon 7:25 AM PDT (10/5) 6:55 PM PDT (10/5)
Length of Visible Light 12h 31m
Length of Day
11h 41m
New Moon, 1% of the Moon is Illuminated
Oct 5
New Moon
Oct 11
First Quarter
Oct 18
Full
Oct 26
Last Quarter
Nov 3
New

Hourly Weather History & Observations

Time (PDT) Temp. Dew Point Humidity Pressure Visibility Wind Dir Wind Speed Gust Speed Precip Events Conditions
12:52 AM 68.0 °F 60.1 °F 76% 30.01 in 8.0 mi North 4.6 mph - N/A   Clear
1:52 AM 68.0 °F 60.1 °F 76% 30.01 in 8.0 mi North 4.6 mph - N/A   Clear
2:52 AM 66.0 °F 59.0 °F 78% 30.01 in 8.0 mi NW 4.6 mph - N/A   Clear
3:52 AM 64.0 °F 57.0 °F 78% 30.01 in 8.0 mi Calm Calm - N/A   Clear
4:52 AM 63.0 °F 53.1 °F 70% 30.01 in 10.0 mi Calm Calm - N/A   Clear
5:52 AM 63.0 °F 53.1 °F 70% 30.02 in 10.0 mi Calm Calm - N/A   Clear
6:52 AM 62.1 °F 54.0 °F 75% 30.03 in 10.0 mi Calm Calm - N/A   Clear
7:52 AM 68.0 °F 53.1 °F 59% 30.05 in 10.0 mi North 5.8 mph - N/A   Clear
8:52 AM 75.0 °F 52.0 °F 44% 30.07 in 10.0 mi Calm Calm - N/A   Clear
9:52 AM 84.9 °F 26.1 °F 12% 30.08 in 10.0 mi Calm Calm - N/A   Clear
10:52 AM 84.2 °F 23.0 °F 11% 30.08 in 10.0 mi NW 3.5 mph - N/A   Clear
11:52 AM 90.0 °F 19.9 °F 8% 30.06 in 10.0 mi WNW 6.9 mph - N/A   Clear
12:52 PM 90.0 °F 21.0 °F 8% 30.04 in 10.0 mi West 10.4 mph - N/A   Clear
1:52 PM 90.0 °F 21.9 °F 8% 30.02 in 10.0 mi WNW 12.7 mph - N/A   Clear
2:52 PM 90.0 °F 21.9 °F 8% 30.01 in 10.0 mi NW 12.7 mph - N/A   Partly Cloudy
3:52 PM 89.1 °F 36.0 °F 15% 30.01 in 10.0 mi NW 12.7 mph - N/A   Partly Cloudy
4:52 PM 84.0 °F 41.0 °F 22% 30.01 in 10.0 mi NNW 13.8 mph - N/A   Partly Cloudy
5:52 PM 84.0 °F 35.6 °F 18% 30.01 in 10.0 mi NNW 13.8 mph - N/A   Partly Cloudy
6:52 PM 81.0 °F 30.9 °F 16% 30.02 in 10.0 mi NNW 4.6 mph - N/A   Partly Cloudy
7:52 PM 77.0 °F 48.0 °F 36% 30.03 in 10.0 mi North 8.1 mph - N/A   Partly Cloudy
8:52 PM 77.0 °F 44.1 °F 31% 30.04 in 10.0 mi North 6.9 mph - N/A   Partly Cloudy
9:52 PM 75.0 °F 37.9 °F 26% 30.05 in 10.0 mi Calm Calm - N/A   Clear
10:52 PM 71.1 °F 44.1 °F 38% 30.05 in 10.0 mi Calm Calm - N/A   Clear
11:52 PM 66.9 °F 42.1 °F 40% 30.05 in 10.0 mi Calm Calm - N/A   Clear